Flag for Canada Weather past 2 weeks in Saint-Jérôme, Quebec, Canada

Now
50 °F

Fog.


Feels Like: 47 °F
Forecast: 49 / 62 °F
Wind: 8 mph from Northeast

Location: Montreal / Mirabel

Current Time: Sep 30, 2014 at 12:47:26 PM

Latest Report: Sep 30, 2014 at 11:00 AM


Visibility: 2 mi

Pressure: 30.04 "Hg

Humidity: 94%

Dew point: 48 °F

Location of Saint-JérômeLocation

Historic Weather in Saint-Jérôme — Graph

°F

Saint-Jérôme temperature yesterday

Maximum temperature yesterday: 63 °F (at 12:00 AM)
Minimum temperature yesterday: 46 °F (at 10:00 PM)
Average temperature yesterday: 55 °F

Past Weeks' High & Low Weather Summary

 TemperatureHumidityPressure
High81 °F (Sep 27, 4:00 PM)100% (Sep 16, 7:00 AM)30.60 "Hg (Sep 16, 7:00 AM)
Low30 °F (Sep 19, 7:00 AM)33% (Sep 19, 4:00 PM)29.49 "Hg (Sep 22, 12:00 AM)
Average55 °F80%30.10 "Hg
* Reported Sep 15 11:00 AM — Sep 30 11:00 AM, Saint-Jérôme, Weather by CustomWeather, © 2014

Note: Actual official high and low records may vary slightly from our data, if they occured in-between our weather recording intervals... More about our weather records

Advertising

Saint-Jérôme weather history for previous 24 hours

 ConditionsComfort  
Time TempWeatherWind HumidityBarometerVisibility
11:00 AM
Sep 30
50 °FFog.8 mph94%30.04 "Hg2 mi
10:00 AM50 °FFog.6 mph94%30.04 "Hg2 mi
9:00 AM48 °FFog.9 mph100%30.03 "Hg2 mi
8:00 AM48 °FFog.9 mph94%30.03 "Hg2 mi
7:00 AM48 °FFog.7 mph94%30.01 "Hg3 mi
6:00 AM48 °FFog.3 mph94%30.01 "Hg5 mi
5:00 AM46 °FFog.8 mph100%30.01 "Hg5 mi
4:00 AM46 °FFog.7 mph100%30.00 "Hg6 mi
3:00 AM46 °FFog.6 mph100%30.00 "Hg6 mi
2:00 AM46 °FLow clouds.8 mph93%30.00 "Hg15 mi
1:00 AM46 °FLow clouds.9 mph93%30.00 "Hg15 mi
12:00 AM46 °FLow clouds.10 mph87%30.00 "Hg15 mi
11:00 PM
Sep 29
46 °FOvercast.7 mph87%30.01 "Hg15 mi
10:00 PM46 °FOvercast.8 mph87%30.01 "Hg25 mi
9:00 PM48 °FOvercast.8 mph87%30.02 "Hg25 mi
8:00 PM48 °FOvercast.9 mph82%30.01 "Hg20 mi
7:00 PM50 °FOvercast.9 mph82%30.01 "Hg20 mi
6:00 PM50 °FMostly cloudy.8 mph82%30.01 "Hg20 mi
5:00 PM52 °FOvercast.7 mph82%30.01 "Hg20 mi
4:54 PM52 °FOvercast.5 mph82%30.00 "Hg20 mi
4:00 PM52 °FOvercast.13 mph82%29.99 "Hg25 mi
3:00 PM54 °FOvercast.12 mph82%30.01 "Hg20 mi
2:00 PM54 °FOvercast.9 mph82%30.02 "Hg25 mi
1:00 PM55 °FOvercast.13 mph77%30.03 "Hg20 mi
12:00 PM55 °FOvercast.12 mph82%30.03 "Hg20 mi
Weather by CustomWeather, © 2014

See weather overviewHow to use our weather pages